FW1655 Arlington MA US current weather conditions

sailwx.info

Wind from 211

Air temperature -0.6° C
Dewpoint -1.4° C

Last reported at 2019-Dec-06 20:01 UTC.
Time now 2019-Dec-06 21:01 UTC

Location: N 42°26' W 071°09'.
View on Google Maps.

See reports from other nearby stations

  
Tides and Currents Weather Stations Pressure Air Temp Water Temp Dewpoint Dewpoint Depression Visibility Wind Speed Wind Dir Waves Ship Positions
date/time (UTC)wind fromknots sea level pressurealtimeterstation pressurevisibilityair tempwater tempwave heightnotes
2019-Dec-06 20:01 211 -0.6
2019-Dec-06 19:46 242 -0.6
2019-Dec-06 19:31 250 -0.0
2019-Dec-06 19:16 172 0.6
2019-Dec-06 19:01 251 0.6
2019-Dec-06 18:46 158 1 gusting 7 1.1
2019-Dec-06 18:32 225 1.1
2019-Dec-06 18:15 273 0 gusting 4 0.6
2019-Dec-06 18:01 152 0.6
2019-Dec-06 17:45 271 0.6
2019-Dec-06 17:30 322 0.6
2019-Dec-06 17:16 233 0 gusting 7 0.6
2019-Dec-06 17:01 243 0 gusting 4 -0.0
2019-Dec-06 16:45 312 -0.0
2019-Dec-06 16:15 292 -0.0
2019-Dec-06 16:00 276 2 gusting 7 -0.6
2019-Dec-06 15:45 239 0 gusting 4 -0.6
2019-Dec-06 15:30 265 0 gusting 3 -0.6
2019-Dec-06 15:15 236 -1.1
2019-Dec-06 15:00 239 0 gusting 3 -1.1
2019-Dec-06 14:45 257 -1.7
2019-Dec-06 14:30 172 -1.7
2019-Dec-06 14:15 253 -2.2
2019-Dec-06 14:04 205 0 gusting 3 -2.8
2019-Dec-06 13:46 243 -2.8
2019-Dec-06 13:32 246 -2.8
2019-Dec-06 13:16 274 -3.3
2019-Dec-06 13:02 215 -3.3
2019-Dec-06 12:46 255 -3.9
2019-Dec-06 12:32 245 -3.9
2019-Dec-06 12:17
2019-Dec-06 12:01
2019-Dec-06 11:46
2019-Dec-06 11:31
2019-Dec-06 11:15
2019-Dec-06 11:00
2019-Dec-06 10:45
2019-Dec-06 10:30
2019-Dec-06 10:15
2019-Dec-06 10:00
2019-Dec-06 09:45
2019-Dec-06 09:30
2019-Dec-06 09:15
2019-Dec-06 09:02
2019-Dec-06 08:46
2019-Dec-06 08:31
2019-Dec-06 08:16
2019-Dec-06 08:01
2019-Dec-06 07:46
2019-Dec-06 07:30
2019-Dec-06 07:15
2019-Dec-06 07:01
2019-Dec-06 06:45
2019-Dec-06 06:30
2019-Dec-06 06:15
2019-Dec-06 06:00
2019-Dec-06 05:45 300 0 gusting 4 -2.2
2019-Dec-06 05:16 142 1 gusting 6 -1.7
2019-Dec-06 05:03 291 2 gusting 7 -1.7
2019-Dec-06 04:46 236 -1.7
2019-Dec-06 04:31 012 2 gusting 6 -1.7
2019-Dec-06 04:16 001 1 gusting 6 -1.1
2019-Dec-06 04:01 292 0 gusting 5 -1.1
2019-Dec-06 03:47 321 3 gusting 7 -1.1
2019-Dec-06 03:30 356 -0.6
2019-Dec-06 03:16 339 2 gusting 9 -0.6
2019-Dec-06 03:01 264 2 gusting 6 -0.6
2019-Dec-06 02:45 311 3 gusting 6 -0.0
2019-Dec-06 02:31 359 2 gusting 6 -0.0
2019-Dec-06 02:15 314 1 gusting 7 -0.0
2019-Dec-06 02:01 354 1 gusting 5 0.6
2019-Dec-06 01:46 300 1 gusting 6 0.6
2019-Dec-06 01:30 345 0 gusting 5 0.6
2019-Dec-06 01:15 316 0 gusting 6 0.6
2019-Dec-06 01:00 342 1 gusting 5 0.6
2019-Dec-06 00:45 343 2 gusting 11 0.6
2019-Dec-06 00:30 345 2 gusting 6 0.6
2019-Dec-06 00:15 287 0 gusting 7 1.1
2019-Dec-06 00:00 330 1 gusting 7 1.1
2019-Dec-05 23:45 316 0 gusting 3 1.1
2019-Dec-05 23:30 327 1.7
2019-Dec-05 23:15 314 1 gusting 5 1.7
2019-Dec-05 23:00 331 0 gusting 4 2.2
2019-Dec-05 22:45 340 0 gusting 6 2.2
2019-Dec-05 22:30 360 0 gusting 4 2.2
2019-Dec-05 22:17 350 1 gusting 6 2.8
2019-Dec-05 22:01 285 1 gusting 4 2.8
2019-Dec-05 21:47 312 1 gusting 6 3.3
2019-Dec-05 21:32 309 1 gusting 6 3.3
2019-Dec-05 21:16 311 3.3
2019-Dec-05 21:01 262 3 gusting 6 3.3
2019-Dec-05 20:46 333 2 gusting 5 3.9
2019-Dec-05 20:31 344 4 gusting 9 3.9
2019-Dec-05 20:15 292 2 gusting 8 4.4
2019-Dec-05 20:01 339 1 gusting 8 4.4
2019-Dec-05 19:46 291 0 gusting 5 4.4
2019-Dec-05 19:31 356 0 gusting 6 4.4
2019-Dec-05 19:16 311 1 gusting 6 4.4
2019-Dec-05 19:01 303 1 gusting 7 4.4
2019-Dec-05 18:46 293 1 gusting 9 5.0
2019-Dec-05 18:31 304 2 gusting 8 5.0
2019-Dec-05 18:15 332 2 gusting 7 5.6
2019-Dec-05 18:00 360 5.6
2019-Dec-05 17:45 312 2 gusting 7 5.6
2019-Dec-05 17:30 320 2 gusting 6 5.6
2019-Dec-05 17:15 331 1 gusting 7 5.6
2019-Dec-05 17:00 341 3 gusting 12 5.6
2019-Dec-05 16:45 344 1 gusting 8 5.6
2019-Dec-05 16:30 312 0 gusting 11 5.0
2019-Dec-05 16:15 345 4 gusting 13 5.0
2019-Dec-05 16:00 314 4 gusting 12 4.4
2019-Dec-05 15:46 297 3 gusting 9 4.4
2019-Dec-05 15:31 304 4 gusting 12 4.4
2019-Dec-05 15:16 295 3 gusting 9 3.9
2019-Dec-05 15:03 294 1 gusting 4 3.9
2019-Dec-05 14:47 333 0 gusting 6 3.3
2019-Dec-05 14:31 322 0 gusting 5 3.3
2019-Dec-05 14:16 001 0 gusting 5 2.2
2019-Dec-05 14:01 255 0 gusting 3 1.7
2019-Dec-05 13:46 322 1 gusting 4 1.1
2019-Dec-05 13:30 271 1 gusting 3 1.1
2019-Dec-05 13:16 293 0 gusting 3 0.6
2019-Dec-05 13:00 294 -0.0
2019-Dec-05 12:45 280 0 gusting 3 -0.0
2019-Dec-05 12:30 304 0 gusting 4 -0.6
2019-Dec-05 12:16 281 -0.6
2019-Dec-05 12:00
2019-Dec-05 11:45
2019-Dec-05 11:30
2019-Dec-05 11:15
2019-Dec-05 11:00
2019-Dec-05 10:47
2019-Dec-05 10:32
2019-Dec-05 10:17
2019-Dec-05 10:01
2019-Dec-05 09:45
2019-Dec-05 09:32
2019-Dec-05 09:15
2019-Dec-05 09:00
2019-Dec-05 08:45
2019-Dec-05 08:30
2019-Dec-05 08:15
2019-Dec-05 08:00
2019-Dec-05 07:45
2019-Dec-05 07:30
2019-Dec-05 07:17
2019-Dec-05 07:01
2019-Dec-05 06:46
2019-Dec-05 06:32
2019-Dec-05 06:16
2019-Dec-05 06:02
2019-Dec-05 05:46
2019-Dec-05 05:31 283 0.6
2019-Dec-05 05:15 252 0.6
2019-Dec-05 05:00 274 0.6
2019-Dec-05 04:45 295 0.6
2019-Dec-05 04:31 262 0.6
2019-Dec-05 04:16 236 0.6
2019-Dec-05 04:00 278 0.6
2019-Dec-05 03:45 246 0.6
2019-Dec-05 03:30 245 1.1
2019-Dec-05 03:15 295 1.1
2019-Dec-05 03:01 316 1.1
2019-Dec-05 02:45 325 1.1
2019-Dec-05 02:30 304 1.1
2019-Dec-05 02:15 277 1.1
2019-Dec-05 02:00 343 1.1
2019-Dec-05 01:45 001 1.1
2019-Dec-05 01:30 291 1.1
2019-Dec-05 01:15 280 1.1
2019-Dec-05 01:00 277 1.7
2019-Dec-05 00:45 269 1.7
2019-Dec-05 00:30 276 1.7
2019-Dec-05 00:16 309 1.7
2019-Dec-05 00:00 259 0 gusting 3 1.7
2019-Dec-04 23:45 251 1.7
2019-Dec-04 23:31 243 1.7
2019-Dec-04 23:15 249 2.2
2019-Dec-04 23:00 214 2.2
2019-Dec-04 22:45 256 1.1
2019-Dec-04 22:30 231 1.1
2019-Dec-04 22:15 219 1.1
2019-Dec-04 22:00 226 1.1
2019-Dec-04 21:45 233 1.7
2019-Dec-04 21:15 255 1.7
2019-Dec-04 21:00 278 1.7